Flag for Germany Weather past 2 weeks in Lippstadt, North Rhine-Westphalia, Germany

Now
45 °F

Rain. Passing clouds.


Feels Like: 37 °F
Forecast: 44 / 54 °F
Wind: 16 mph from West

Location: Paderborn / Lippstadt

Current Time: Oct 22, 2014 at 2:41:24 AM

Latest Report: Oct 21, 2014 at 11:50 PM


Visibility: N/A

Pressure: 29.68 "Hg

Humidity: 81%

Dew point: 39 °F

Location of LippstadtLocation

Historic Weather in Lippstadt — Graph

°F

Lippstadt temperature yesterday

Maximum temperature yesterday: 54 °F (at 10:50 AM)
Minimum temperature yesterday: 45 °F (at 8:50 PM)
Average temperature yesterday: 51 °F

Past Weeks' High & Low Weather Summary

 TemperatureHumidityPressure
High72 °F (Oct 19, 1:20 PM)100% (Oct 7, 12:20 PM)30.15 "Hg (Oct 7, 12:20 PM)
Low45 °F (Oct 21, 8:50 PM)52% (Oct 14, 2:20 PM)29.47 "Hg (Oct 21, 5:20 PM)
Average57 °F80%29.84 "Hg
* Reported Oct 6 11:20 PM — Oct 21 11:50 PM, Lippstadt, Weather by CustomWeather, © 2014

Note: Actual official high and low records may vary slightly from our data, if they occured in-between our weather recording intervals... More about our weather records

Advertising

Lippstadt weather history for previous 24 hours

 ConditionsComfort  
Time TempWeatherWind HumidityBarometerVisibility
11:50 PM
Oct 21
45 °FRain. Passing clouds.16 mph81%29.68 "HgN/A
11:20 PM45 °FPassing clouds.16 mph87%29.65 "HgN/A
10:50 PM45 °FLight rain. Partly cloudy.13 mph87%29.65 "HgN/A
10:20 PM45 °FPartly cloudy.15 mph93%29.62 "HgN/A
9:50 PM45 °FPartly cloudy.9 mph93%29.62 "HgN/A
9:20 PM46 °FLight rain. Partly cloudy.12 mph93%29.59 "HgN/A
8:50 PM45 °FLight rain. Passing clouds.14 mph93%29.56 "HgN/A
8:20 PM46 °FLight rain. Partly cloudy.15 mph93%29.56 "HgN/A
7:50 PM48 °FLight rain. Partly cloudy.12 mph94%29.53 "HgN/A
7:20 PM48 °FLight rain. Partly cloudy.13 mph94%29.53 "HgN/A
6:50 PM48 °FLight rain. Broken clouds.13 mph100%29.50 "HgN/A
6:20 PM50 °FRain. Broken clouds.17 mph94%29.50 "Hg4 mi
5:50 PM52 °FRain. Broken clouds.18 mph88%29.47 "Hg4 mi
5:20 PM52 °FLight rain. Partly sunny.16 mph88%29.47 "HgN/A
4:50 PM54 °FLight rain. Broken clouds.18 mph77%29.50 "HgN/A
4:20 PM54 °FPartly sunny.24 mph77%29.50 "HgN/A
3:50 PM54 °FLight rain. Broken clouds.18 mph77%29.53 "HgN/A
3:20 PM54 °FLight rain. Broken clouds.20 mph77%29.56 "Hg5 mi
2:50 PM54 °FLight rain. Broken clouds.17 mph72%29.56 "Hg6 mi
2:20 PM54 °FLight rain. Broken clouds.24 mph72%29.59 "Hg6 mi
1:50 PM54 °FLight rain. Partly sunny.17 mph72%29.62 "HgN/A
1:20 PM54 °FLight rain. Partly sunny.16 mph72%29.65 "HgN/A
12:50 PM54 °FLight rain. Partly sunny.16 mph72%29.68 "HgN/A
12:20 PM54 °FLight rain. Partly sunny.15 mph72%29.68 "HgN/A
11:50 AM54 °FBroken clouds.14 mph72%29.71 "HgN/A
11:20 AM54 °FBroken clouds.14 mph72%29.71 "HgN/A
10:50 AM54 °FBroken clouds.18 mph77%29.74 "HgN/A
10:20 AM52 °FLight rain. Broken clouds.13 mph82%29.77 "Hg5 mi
9:50 AM52 °FLight rain. Broken clouds.14 mph88%29.77 "Hg5 mi
9:20 AM52 °FBroken clouds.12 mph82%29.77 "HgN/A
8:50 AM52 °FPartly cloudy.10 mph82%29.77 "HgN/A
8:20 AM52 °FPartly cloudy.12 mph82%29.80 "HgN/A
7:50 AM50 °FPassing clouds.10 mph88%29.80 "HgN/A
7:20 AM52 °FPassing clouds.12 mph82%29.80 "HgN/A
6:50 AM52 °FPartly cloudy.10 mph82%29.83 "HgN/A
6:20 AM52 °FPartly cloudy.10 mph82%29.83 "HgN/A
5:50 AM52 °FPassing clouds.10 mph82%29.83 "HgN/A
5:20 AM52 °FCool.12 mph82%29.86 "HgN/A
4:50 AM52 °FPassing clouds.9 mph82%29.86 "HgN/A
4:20 AM52 °FPassing clouds.9 mph88%29.89 "HgN/A
3:50 AM50 °FPassing clouds.9 mph94%29.89 "HgN/A
3:20 AM52 °FPassing clouds.9 mph94%29.89 "HgN/A
Weather by CustomWeather, © 2014

See weather overviewHow to use our weather pages